EW1011 Weather Reports


time (UTC)temp
C
wind
direction
speed
KPH
gust
KPH
rain 1hr
cm
rain 24hr
cm
rain mn
cm
humidity
%
barometer
mb
20260505063012 13 345 0.0 0.0 0.00 0.00 0.00 71 1009.4
20260505061511 13 345 0.0 0.0 0.00 0.00 0.00 70 1009.3
20260505060011 13 345 0.0 0.0 0.00 0.00 0.00 70 1009.3
20260505054508 14 345 0.0 0.0 0.00 0.00 0.00 70 1009.3
20260505053007 14 345 0.0 0.0 0.00 0.00 0.00 71 1009.5
20260505051509 14 345 0.0 0.0 0.00 0.00 0.00 71 1009.5
20260505041559 15 345 0.0 0.0 0.00 0.00 0.00 71 1009.4
20260505034554 16 345 0.0 0.0 0.00 0.00 0.00 66 1009.3
20260505033057 17 345 0.0 3.2 0.00 0.00 0.00 64 1009.3
20260505031600 16 317 0.0 1.6 0.00 0.00 0.00 66 1009.3
20260505030059 16 313 0.0 0.0 0.00 0.00 0.00 66 1009.3
20260505024554 17 313 0.0 3.2 0.00 0.00 0.00 64 1009.3
20260505023055 17 351 0.0 4.8 0.00 0.00 0.00 62 1009.3
20260505021552 17 94 0.0 0.0 0.00 0.00 0.00 60 1009.3
20260505020052 16 94 0.0 1.6 0.00 0.00 0.00 62 1009.3
20260505014603 16 94 0.0 0.0 0.00 0.00 0.00 66 1008.8
20260505013050 16 94 0.0 0.0 0.00 0.00 0.00 64 1009.2
20260505011552 17 94 0.0 0.0 0.00 0.00 0.00 62 1009.0
20260505010049 17 94 0.0 0.0 0.00 0.00 0.00 62 1008.8
20260505004551 17 94 0.0 0.0 0.00 0.00 0.00 61 1008.7
20260505003046 18 94 0.0 0.0 0.00 0.00 0.00 59 1008.8
20260505001546 18 94 0.0 6.4 0.00 0.00 0.00 56 1008.5
20260505000052 19 100 0.0 3.2 0.00 0.00 0.00 53 1008.6
20260504234544 20 101 0.0 4.8 0.00 0.00 0.00 49 1008.7
20260504233043 20 141 0.0 3.2 0.00 0.00 0.00 46 1008.7
20260504231541 21 105 1.6 9.7 0.00 0.00 0.00 44 1008.6
20260504230046 21 280 0.0 12.9 0.00 0.00 0.00 44 1008.6
20260504224546 21 237 1.6 12.9 0.00 0.00 0.00 42 1008.6
20260504223040 22 108 0.0 11.3 0.00 0.00 0.00 41 1008.6
20260504221540 22 79 1.6 9.7 0.00 0.00 0.00 39 1008.6
20260504220038 22 113 1.6 11.3 0.00 0.00 0.00 38 1008.4
20260504214542 23 7 0.0 8.0 0.00 0.00 0.00 37 1008.5
20260504213038 23 72 0.0 16.1 0.00 0.00 0.00 36 1008.5
20260504211536 23 106 1.6 8.0 0.00 0.00 0.00 35 1008.7
20260504210050 23 260 0.0 12.9 0.00 0.00 0.00 35 1008.5
20260504204552 24 175 0.0 8.0 0.00 0.00 0.00 37 1008.7
20260504203036 24 97 0.0 6.4 0.00 0.00 0.00 34 1008.7
20260504201532 24 221 0.0 4.8 0.00 0.00 0.00 35 1008.8
20260504200032 24 125 0.0 8.0 0.00 0.00 0.00 35 1008.9
20260504194530 25 142 0.0 3.2 0.00 0.00 0.00 34 1009.2
20260504193030 24 106 0.0 8.0 0.00 0.00 0.00 34 1009.4
20260504191531 25 146 0.0 8.0 0.00 0.00 0.00 33 1009.8
20260504190026 25 107 1.6 12.9 0.00 0.00 0.00 33 1009.9
20260504184527 24 200 0.0 14.5 0.00 0.00 0.00 35 1010.2
20260504183025 24 80 3.2 11.3 0.00 0.00 0.00 31 1010.4
20260504181523 25 106 1.6 9.7 0.00 0.00 0.00 30 1010.4
20260504180022 23 123 0.0 8.0 0.00 0.00 0.00 31 1010.6
20260504174521 23 162 1.6 9.7 0.00 0.00 0.00 30 1010.8
20260504173020 23 258 3.2 11.3 0.00 0.00 0.00 31 1010.9
20260504171518 22 264 0.0 8.0 0.00 0.00 0.00 33 1011.1
20260504081509 9 260 0.0 0.0 0.00 0.00 0.00 68 1014.0